2022-058G (52791 NORAD) Tracking and Keplerian Element Data
This shows tracking and keplerian element data for the satellite.
Feedback or suggestion? Click here.
Element | Value |
Catalog | 52791 |
Name | 2022-058G |
Epoch Orbit | 593 |
Epoch Day | 193.12014525 |
Epoch Year | 2022 |
RAAN | 74.4881 |
Inclination | 49.9922 |
Eccentricity | 0.0015199 |
Argument of Perigee | 90.6793 |
Mean Anonmoly | 269.5897 |
Mean Motion | 14.87349205 |
Decay Rate | 1.45E-05 |
L1 | 1 52791U 22058G 22193.12014525 .00001450 00000+0 18442-3 0 9999 |
L2 | 2 52791 49.9922 74.4881 0015199 90.6793 269.5897 14.87349205 5938 |
Live tracking and technical data element details for 2022-058G (NORAD 52791). 2022-058G can be tracked NOW for your location showing map with azimuth and elevation plus other details from your city location.
Track the satellite on the map from your city or location and see movement details for azimuth, elevation, latitude, longitude, range, height, and movement on the map or in text.
IsCatalogInMostPopularTable: catalog: 52791, numindb: 4
Update: records affected: 1
GetName: 52791 2022-058G
Hit Count: updated at: Sat, 13 Aug 2022 23:42:43 GMT